Time,TemperatureF,DewpointF,PressureIn,WindDirection,WindDirectionDegrees,WindSpeedMPH,WindSpeedGustMPH,Humidity,HourlyPrecipIn,Conditions,Clouds,dailyrainin,SoftwareType,DateUTC
2013-04-22 00:02:00,45.1,35.0,30.31,SE,128,10.0,15.0,68,0.00,,,0.00,weatherlink.com 1.10,2013-04-22 05:02:00,
2013-04-22 00:17:00,45.0,35.0,30.31,ESE,117,8.0,12.0,68,0.00,,,0.00,weatherlink.com 1.10,2013-04-22 05:17:00,
2013-04-22 00:32:00,45.0,35.0,30.32,South,174,4.0,8.0,68,0.00,,,0.00,weatherlink.com 1.10,2013-04-22 05:32:00,
2013-04-22 00:47:00,45.1,35.0,30.31,SSE,150,2.0,9.0,67,0.00,,,0.00,weatherlink.com 1.10,2013-04-22 05:47:00,
2013-04-22 01:02:00,45.2,35.0,30.31,SE,138,5.0,10.0,67,0.00,,,0.00,weatherlink.com 1.10,2013-04-22 06:02:00,
2013-04-22 01:17:00,45.2,34.0,30.31,SSE,166,4.0,10.0,66,0.00,,,0.00,weatherlink.com 1.10,2013-04-22 06:17:00,
2013-04-22 01:32:00,44.9,34.0,30.30,SSE,148,5.0,10.0,67,0.00,,,0.00,weatherlink.com 1.10,2013-04-22 06:32:00,
2013-04-22 01:47:00,44.5,34.0,30.29,SSE,160,6.0,9.0,68,0.00,,,0.00,weatherlink.com 1.10,2013-04-22 06:47:00,
2013-04-22 02:02:00,44.2,34.0,30.29,SE,128,6.0,9.0,68,0.00,,,0.00,weatherlink.com 1.10,2013-04-22 07:02:00,
2013-04-22 02:17:00,43.9,34.0,30.30,SSE,153,5.0,7.0,69,0.00,,,0.00,weatherlink.com 1.10,2013-04-22 07:17:00,
2013-04-22 02:32:00,43.7,34.0,30.30,ESE,123,3.0,9.0,69,0.00,,,0.00,weatherlink.com 1.10,2013-04-22 07:32:00,
2013-04-22 02:47:00,43.6,34.0,30.30,SSE,162,4.0,8.0,70,0.00,,,0.00,weatherlink.com 1.10,2013-04-22 07:47:00,
2013-04-22 03:02:00,43.4,34.0,30.29,SE,141,3.0,7.0,70,0.00,,,0.00,weatherlink.com 1.10,2013-04-22 08:02:00,
2013-04-22 03:17:00,43.1,34.0,30.28,SSE,168,3.0,9.0,71,0.00,,,0.00,weatherlink.com 1.10,2013-04-22 08:17:00,
2013-04-22 03:33:00,43.0,34.0,30.28,SE,136,3.0,10.0,71,0.00,,,0.00,weatherlink.com 1.10,2013-04-22 08:33:00,
2013-04-22 03:48:00,42.8,34.0,30.28,SSE,150,3.0,8.0,71,0.00,,,0.00,weatherlink.com 1.10,2013-04-22 08:48:00,
2013-04-22 04:03:00,42.7,34.0,30.28,South,172,2.0,9.0,72,0.00,,,0.00,weatherlink.com 1.10,2013-04-22 09:03:00,
2013-04-22 04:18:00,42.4,34.0,30.28,SE,127,3.0,6.0,72,0.00,,,0.00,weatherlink.com 1.10,2013-04-22 09:18:00,
2013-04-22 04:33:00,42.5,34.0,30.28,South,172,3.0,8.0,72,0.00,,,0.00,weatherlink.com 1.10,2013-04-22 09:33:00,
2013-04-22 04:48:00,42.6,34.0,30.28,SSE,149,2.0,6.0,71,0.00,,,0.00,weatherlink.com 1.10,2013-04-22 09:48:00,
2013-04-22 05:03:00,42.2,34.0,30.27,SE,143,4.0,7.0,72,0.00,,,0.00,weatherlink.com 1.10,2013-04-22 10:03:00,
2013-04-22 05:18:00,41.9,34.0,30.28,SSE,163,2.0,5.0,73,0.00,,,0.00,weatherlink.com 1.10,2013-04-22 10:18:00,
2013-04-22 05:33:00,41.5,34.0,30.28,SSE,159,3.0,4.0,74,0.00,,,0.00,weatherlink.com 1.10,2013-04-22 10:33:00,
2013-04-22 05:48:00,41.5,34.0,30.28,SSE,152,4.0,5.0,74,0.00,,,0.00,weatherlink.com 1.10,2013-04-22 10:48:00,
2013-04-22 06:03:00,41.3,34.0,30.28,South,171,2.0,6.0,74,0.00,,,0.00,weatherlink.com 1.10,2013-04-22 11:03:00,
2013-04-22 06:18:00,41.1,34.0,30.28,SSE,159,2.0,6.0,75,0.00,,,0.00,weatherlink.com 1.10,2013-04-22 11:18:00,
2013-04-22 06:33:00,41.0,34.0,30.27,SE,136,4.0,6.0,76,0.00,,,0.00,weatherlink.com 1.10,2013-04-22 11:33:00,
2013-04-22 06:48:00,41.3,34.0,30.27,SE,132,2.0,7.0,76,0.00,,,0.00,weatherlink.com 1.10,2013-04-22 11:48:00,
2013-04-22 07:03:00,41.5,34.0,30.27,SE,140,2.0,5.0,75,0.00,,,0.00,weatherlink.com 1.10,2013-04-22 12:03:00,
2013-04-22 07:18:00,42.0,35.0,30.27,SSE,163,3.0,6.0,75,0.00,,,0.00,weatherlink.com 1.10,2013-04-22 12:18:00,
2013-04-22 07:33:00,42.5,34.0,30.27,SE,139,2.0,7.0,73,0.00,,,0.00,weatherlink.com 1.10,2013-04-22 12:33:00,
2013-04-22 07:48:00,43.7,35.0,30.27,SE,138,3.0,6.0,72,0.00,,,0.00,weatherlink.com 1.10,2013-04-22 12:48:00,
2013-04-22 08:03:00,45.4,35.0,30.27,SSE,164,3.0,9.0,68,0.00,,,0.00,weatherlink.com 1.10,2013-04-22 13:03:00,
2013-04-22 08:18:00,46.6,36.0,30.26,South,171,2.0,9.0,66,0.00,,,0.00,weatherlink.com 1.10,2013-04-22 13:18:00,
2013-04-22 08:33:00,48.0,36.0,30.26,SSE,150,3.0,7.0,63,0.00,,,0.00,weatherlink.com 1.10,2013-04-22 13:33:00,
2013-04-22 08:48:00,48.8,36.0,30.25,ESE,123,5.0,7.0,62,0.00,,,0.00,weatherlink.com 1.10,2013-04-22 13:48:00,
2013-04-22 09:03:00,50.2,37.0,30.26,South,177,1.0,7.0,61,0.00,,,0.00,weatherlink.com 1.10,2013-04-22 14:03:00,
2013-04-22 09:18:00,51.5,37.0,30.26,SSE,155,3.0,8.0,58,0.00,,,0.00,weatherlink.com 1.10,2013-04-22 14:18:00,
2013-04-22 09:33:00,52.4,38.0,30.26,SE,144,5.0,7.0,58,0.00,,,0.00,weatherlink.com 1.10,2013-04-22 14:33:00,
2013-04-22 09:48:00,53.3,38.0,30.26,SSE,148,2.0,7.0,57,0.00,,,0.00,weatherlink.com 1.10,2013-04-22 14:48:00,
2013-04-22 10:04:00,54.1,39.0,30.26,SE,134,2.0,8.0,57,0.00,,,0.00,weatherlink.com 1.10,2013-04-22 15:04:00,
2013-04-22 10:19:00,54.4,38.0,30.26,South,188,1.0,7.0,55,0.00,,,0.00,weatherlink.com 1.10,2013-04-22 15:19:00,
2013-04-22 10:34:00,55.7,39.0,30.25,SW,232,3.0,6.0,53,0.00,,,0.00,weatherlink.com 1.10,2013-04-22 15:34:00,
2013-04-22 10:49:00,56.0,39.0,30.25,SSW,213,5.0,8.0,53,0.00,,,0.00,weatherlink.com 1.10,2013-04-22 15:49:00,
2013-04-22 11:04:00,56.7,39.0,30.25,SE,136,2.0,10.0,52,0.00,,,0.00,weatherlink.com 1.10,2013-04-22 16:04:00,
2013-04-22 11:19:00,58.1,40.0,30.25,SSE,153,2.0,9.0,52,0.00,,,0.00,weatherlink.com 1.10,2013-04-22 16:19:00,
2013-04-22 11:34:00,58.6,41.0,30.25,SSE,157,5.0,7.0,52,0.00,,,0.00,weatherlink.com 1.10,2013-04-22 16:34:00,
2013-04-22 11:49:00,58.9,41.0,30.24,SSE,151,4.0,8.0,52,0.00,,,0.00,weatherlink.com 1.10,2013-04-22 16:49:00,
2013-04-22 12:04:00,59.9,43.0,30.24,South,182,0.0,10.0,53,0.00,,,0.00,weatherlink.com 1.10,2013-04-22 17:04:00,
2013-04-22 12:19:00,60.3,41.0,30.23,SSE,160,4.0,8.0,50,0.00,,,0.00,weatherlink.com 1.10,2013-04-22 17:19:00,
2013-04-22 12:34:00,60.7,42.0,30.22,South,175,4.0,8.0,51,0.00,,,0.00,weatherlink.com 1.10,2013-04-22 17:34:00,
2013-04-22 12:49:00,61.1,43.0,30.21,SE,146,6.0,8.0,51,0.00,,,0.00,weatherlink.com 1.10,2013-04-22 17:49:00,
2013-04-22 13:04:00,62.4,43.0,30.20,SSE,165,4.0,11.0,50,0.00,,,0.00,weatherlink.com 1.10,2013-04-22 18:04:00,
2013-04-22 13:19:00,62.8,43.0,30.18,SE,138,3.0,10.0,48,0.00,,,0.00,weatherlink.com 1.10,2013-04-22 18:19:00,
2013-04-22 13:34:00,63.4,42.0,30.18,SW,219,3.0,8.0,46,0.00,,,0.00,weatherlink.com 1.10,2013-04-22 18:34:00,
2013-04-22 13:49:00,63.8,41.0,30.17,South,173,5.0,12.0,43,0.00,,,0.00,weatherlink.com 1.10,2013-04-22 18:49:00,
2013-04-22 14:04:00,64.2,41.0,30.16,SSE,152,1.0,8.0,43,0.00,,,0.00,weatherlink.com 1.10,2013-04-22 19:04:00,
2013-04-22 14:19:00,64.3,39.0,30.16,South,169,2.0,8.0,40,0.00,,,0.00,weatherlink.com 1.10,2013-04-22 19:19:00,
2013-04-22 14:34:00,64.5,41.0,30.15,SSW,196,4.0,10.0,43,0.00,,,0.00,weatherlink.com 1.10,2013-04-22 19:34:00,
2013-04-22 14:49:00,64.6,41.0,30.14,South,178,6.0,11.0,43,0.00,,,0.00,weatherlink.com 1.10,2013-04-22 19:49:00,
2013-04-22 15:04:00,65.0,41.0,30.13,SSE,153,8.0,10.0,42,0.00,,,0.00,weatherlink.com 1.10,2013-04-22 20:04:00,
2013-04-22 15:19:00,65.2,42.0,30.12,SSE,168,2.0,11.0,43,0.00,,,0.00,weatherlink.com 1.10,2013-04-22 20:19:00,
2013-04-22 15:35:00,65.2,41.0,30.11,SSE,147,1.0,10.0,42,0.00,,,0.00,weatherlink.com 1.10,2013-04-22 20:35:00,
2013-04-22 15:50:00,64.7,42.0,30.11,SSE,148,6.0,14.0,43,0.00,,,0.00,weatherlink.com 1.10,2013-04-22 20:50:00,
2013-04-22 16:05:00,64.9,40.0,30.10,SE,128,4.0,13.0,41,0.00,,,0.00,weatherlink.com 1.10,2013-04-22 21:05:00,
2013-04-22 16:20:00,65.0,41.0,30.10,South,185,3.0,12.0,41,0.00,,,0.00,weatherlink.com 1.10,2013-04-22 21:20:00,
2013-04-22 16:35:00,65.0,40.0,30.09,East,95,7.0,10.0,40,0.00,,,0.00,weatherlink.com 1.10,2013-04-22 21:35:00,
2013-04-22 16:50:00,65.5,42.0,30.08,SSE,163,4.0,8.0,43,0.00,,,0.00,weatherlink.com 1.10,2013-04-22 21:50:00,
2013-04-22 17:05:00,65.1,39.0,30.07,SE,140,5.0,12.0,39,0.00,,,0.00,weatherlink.com 1.10,2013-04-22 22:05:00,
2013-04-22 17:20:00,65.0,41.0,30.06,SE,143,7.0,12.0,41,0.00,,,0.00,weatherlink.com 1.10,2013-04-22 22:20:00,
2013-04-22 17:35:00,65.1,41.0,30.06,SE,138,4.0,11.0,41,0.00,,,0.00,weatherlink.com 1.10,2013-04-22 22:35:00,
2013-04-22 17:50:00,64.8,40.0,30.07,ESE,119,4.0,14.0,41,0.00,,,0.00,weatherlink.com 1.10,2013-04-22 22:50:00,
2013-04-22 18:05:00,64.3,40.0,30.07,SSE,163,7.0,9.0,41,0.00,,,0.00,weatherlink.com 1.10,2013-04-22 23:05:00,
2013-04-22 18:20:00,63.5,40.0,30.06,SSE,158,3.0,9.0,43,0.00,,,0.00,weatherlink.com 1.10,2013-04-22 23:20:00,
2013-04-22 18:35:00,63.5,42.0,30.06,SE,143,6.0,10.0,45,0.00,,,0.00,weatherlink.com 1.10,2013-04-22 23:35:00,
2013-04-22 18:50:00,62.7,41.0,30.06,SE,132,2.0,10.0,45,0.00,,,0.00,weatherlink.com 1.10,2013-04-22 23:50:00,
2013-04-22 19:05:00,62.2,42.0,30.05,SSE,156,5.0,7.0,47,0.00,,,0.00,weatherlink.com 1.10,2013-04-23 00:05:00,
2013-04-22 19:20:00,61.6,42.0,30.05,SE,145,4.0,6.0,48,0.00,,,0.00,weatherlink.com 1.10,2013-04-23 00:20:00,
2013-04-22 19:35:00,60.9,41.0,30.05,SSE,147,4.0,8.0,49,0.00,,,0.00,weatherlink.com 1.10,2013-04-23 00:35:00,
2013-04-22 19:50:00,60.3,41.0,30.05,SSE,151,3.0,6.0,49,0.00,,,0.00,weatherlink.com 1.10,2013-04-23 00:50:00,
2013-04-22 20:05:00,59.6,41.0,30.05,SE,136,6.0,6.0,51,0.00,,,0.00,weatherlink.com 1.10,2013-04-23 01:05:00,
2013-04-22 20:20:00,58.8,42.0,30.05,SE,141,4.0,6.0,54,0.00,,,0.00,weatherlink.com 1.10,2013-04-23 01:20:00,
2013-04-22 20:35:00,58.4,42.0,30.05,SSE,161,3.0,8.0,55,0.00,,,0.00,weatherlink.com 1.10,2013-04-23 01:35:00,
2013-04-22 20:50:00,58.3,41.0,30.05,SE,133,5.0,7.0,54,0.00,,,0.00,weatherlink.com 1.10,2013-04-23 01:50:00,
2013-04-22 21:05:00,58.1,41.0,30.05,SE,146,3.0,7.0,54,0.00,,,0.00,weatherlink.com 1.10,2013-04-23 02:05:00,
2013-04-22 21:20:00,57.6,41.0,30.05,ESE,121,3.0,7.0,54,0.00,,,0.00,weatherlink.com 1.10,2013-04-23 02:20:00,
2013-04-22 21:35:00,57.0,41.0,30.05,ESE,119,4.0,9.0,56,0.00,,,0.00,weatherlink.com 1.10,2013-04-23 02:35:00,
2013-04-22 21:50:00,56.4,42.0,30.06,SE,138,5.0,7.0,58,0.00,,,0.00,weatherlink.com 1.10,2013-04-23 02:50:00,
2013-04-22 22:05:00,56.4,42.0,30.05,ESE,122,2.0,8.0,58,0.00,,,0.00,weatherlink.com 1.10,2013-04-23 03:05:00,
2013-04-22 22:20:00,56.5,42.0,30.06,SE,142,4.0,7.0,58,0.00,,,0.00,weatherlink.com 1.10,2013-04-23 03:20:00,
2013-04-22 22:35:00,56.3,41.0,30.05,SSE,152,4.0,6.0,58,0.00,,,0.00,weatherlink.com 1.10,2013-04-23 03:35:00,
2013-04-22 22:50:00,55.9,41.0,30.05,SE,134,3.0,6.0,58,0.00,,,0.00,weatherlink.com 1.10,2013-04-23 03:50:00,
2013-04-22 23:05:00,55.7,42.0,30.05,SE,144,1.0,5.0,60,0.00,,,0.00,weatherlink.com 1.10,2013-04-23 04:05:00,
2013-04-22 23:20:00,55.5,42.0,30.04,SE,142,2.0,7.0,60,0.00,,,0.00,weatherlink.com 1.10,2013-04-23 04:20:00,
2013-04-22 23:35:00,55.5,42.0,30.04,SE,128,6.0,7.0,60,0.00,,,0.00,weatherlink.com 1.10,2013-04-23 04:35:00,
2013-04-22 23:50:00,55.1,42.0,30.03,SE,139,3.0,7.0,62,0.00,,,0.00,weatherlink.com 1.10,2013-04-23 04:50:00,